Погода в Валуйки

Погода в Валуйки : погода сейчас, прогноз погоды и архив. Всё, что Вы хотите узнать о погоде в Валуйки!

Хотите узнать прогноз погоды в Валуйки? Тогда Вам сюда: Погода в Валуйки

Поиск расширенной информации на нашем сайте:

Другие новости

Новости СМИ2

Главная страница сайта

Новости сайта

03.07.2017

Напоминаем, что на нашем специализированном сайте Метеоцентр.Азия вы можете получить высокодетализированные автоматические прогнозы погоды по пунктам России, СНГ и мира в авиационном формате (включающие направление и скорость ветра, видимость, явления погоды, количество и форму облачности, нижнюю и верхнюю границу облачности).


Погода в Валуйки - сегодня

Время (UTC), дата Ветер
(°,м/с) 
Видим.   Явления Облачность Т
(°С)
Тd
(°С)
f(%) Тe
(°С)
Pmin
(гПа)
dP
(гПа)
Po
(мм)
O2
(г/м3)
Тmin Tmax R s Состояние
почвы
12 20.10.17 070 (В) 20000 м    10/0 средняя 
[Ac As]
+12.5 +5.6 63 +14  1019.8  0.3  755  290           
15 20.10.17 030 (СВ) 20000 м    10/0 средняя 
[Ac As]
+11.7 +4.5 61 +13  1019.6  -0.2  755  291           
18 20.10.17 060 (СВ) 10 км    10/0 средняя 
[Ac As]
+10.6 +3.6 62 +11  1020.2  0.5  755  292    +13       
21 20.10.17 060 (СВ) 10 км    6/0 средняя 
[Ac trans]
+7.1 +1.9 69 +7  1020.5  0.1  755  296           
00 21.10.17 260 (З) 10 км    ясно 
+3.1 +1 86 +4  1020.7  755  301           
03 21.10.17 тихо ()   10 км    3/0 средняя 
[Ac trans]
+0.1 -0.8 94 1020.5  -0.3  755  304  -0.2         
06 21.10.17 260 (З) 20000 м    3/0 средняя 
[Ac trans]
+1 -0.4 90 +2  1020.3  -0.2  755  303  -0.2         
09 21.10.17 100 (В) 20000 м    6/0 средняя 
[Ac trans]
+10.2 +2.7 60 +11  1018.9  -0.8  754  292           
12 21.10.17 040 (СВ) 20000 м    8/0 средняя 
[Ac trans]
+11.5 +1.9 52 +13  1016.9  -1.9  753  291           
15 21.10.17 040 (СВ) 20000 м    9/0 средняя 
[Ac trans]
+9.2 +1.7 59 +9  1016.6  -0.4  752  293           
18 21.10.17 050 (СВ) 10 км    10/0 средняя 
[Ac As]
+7.7 +1.5 65 +7  1016.3  -0.4  752  294    +11.7       
21 21.10.17 080 (В) 10 км  слаб. ливневой дождь  10/3 600 м кучево-дожд., средняя 
[Cb cap|Ac As]
+6.1 +3.5 83 +6  1015.5  -0.9  751  296           
00 22.10.17 050 (СВ) 10 км  слаб. ливневой дождь  10/4 600 м кучево-дожд., средняя 
[Cb cap|Ac As]
+4.7 +3.5 92 +4  1015.5  -0.1  751  297           
03 22.10.17 050 (СВ) 10 км  слаб. ливневой дождь  10/4 600 м кучево-дожд., средняя 
[Cb cap|Ac As]
+3.4 +2.4 93 +3  1015.2  -0.3  751  299  +3       
06 22.10.17 050 (СВ) 20000 м  {ливн. осадки}  10/3 600 м кучево-дожд., средняя 
[Cb cap|Ac As]
+2.5 +1.5 93 +2  1014.7  -0.6  751  299  +2.5       
09 22.10.17 040 (СВ) 20000 м    10/3 600 м кучево-дожд., средняя 
[Cb cap|Ac As]
+3.8 +1.8 87 +3  1015  0.4  751  298           
12 22.10.17 020 (С) 20000 м    9/3 600 м кучево-дожд., средняя, верхняя 
[Cb cap|Ac trans|Ci fib]
+5.4 +0.5 71 +4  1015.2  0.3  751  297           
15 22.10.17 360 (С) 10 км    6/0 средняя, верхняя 
[Ac trans|Ci fib]
+3.8 -1.5 68 +3  1016.9  1.5  752  299         
18 22.10.17 020 (С) 10 км    ясно 
+1.7 -3 71 +1  1018.8  1.9  754  302    +5.4       
21 22.10.17 300 (СЗ) 10 км    ясно 
-1.7 -2.9 91 -3  1020.5  1.4  755  306           
00 23.10.17 350 (С) 10 км    ясно 
-3.8 -4.8 93 -3  1012.4  0.8  755  309           
03 23.10.17 160 (Ю) 10 км    ясно 
-5.6 -6.3 95 -5  1022.3  0.8  756  312  -5.6         
06 23.10.17 тихо ()   10 км    3/0 верхняя 
[Ci fib]
-2.9 -4.2 91 -3  1023  0.8  756  309  -5.6         
09 23.10.17 150 (ЮВ) 10 км    6/3 1000 м верхняя 
[Sc|Ci sp]
+3.3 -3.1 63 +4  1022.7  756  302           
12 23.10.17 130 (ЮВ) 20000 м    6/0 верхняя 
[Ci sp]
+4.4 -4.5 52 +5  1022.4  -0.2  756  300           
Время (UTC), дата Ветер
(°,м/с) 
Видим.   Явления Облачность Т
(°С)
Тd
(°С)
f(%) Тe
(°С)
Pmin
(гПа)
dP
(гПа)
Po
(мм)
O2
(г/м3)
Тmin Tmax R s Состояние
почвы

Для получения пояснительной информации подведите курсор к названию столбца.

ПОГОДА в Валуйки - архив

Всё, что Вы хотите узнать о погоде в Валуйки - удобно и подробно!

Выберите нужную дату (начиная с 1 января 2015* года) и нажмите кнопку "Найти".
Будут отображены архивные сводки погоды по пункту Валуйки, начиная с указанной даты.


Отображать данные в формате CSV (для использования в таблицах Excel)


Внимание! Наш архив погоды предназначен исключительно для личного некоммерческого использования в познавательных целях. Если Вам необходимы официальные справки о состоянии погоды (для производственных, юридических, коммерческих и т.п. целей), обращайтесь в органы Росгидромета.

*Примечание: данная дата относится к архиву по метеостанциям СССР (Россия, СНГ, Балтия).
Архив по метеостанциям Зарубежной Европы и Азии (кроме Китая) хранится 10 дней, по другим регионам земного шара (Китай, Африка, Америка, Австралия, Океания) - 1 день.

Валуйки - район местоположения метеостанции


Название, широта, долгота, высота метеостанции:
Валуйки 50.2°ш. 38.1°д. 112 м над ур. моря [Российская Федерация]

Дополнительная информация

В oтличие oт бoльшинства пoгoдных сайтoв мы публикуем пoдрoбную метеoинфoрмацию в детальнoм прoфессиoнальнoм фoрмате.

Характеристики температуры и влажнoсти вoздуха измеряются на высoте 2 м в тени вдали oт зданий и деревьев.
Скoрoсть ветра измеряется на высoте 10 м (на урoвне рoста челoвека скoрoсть ветра ниже в 1.5-2 раза). Если метеoстанция нахoдится в гoрoде или в лесу, тo скoрoсть ветра занижена на 2-4 м/с пo сравнению с oткрытым местoм. Скoрoсть ветра над акватoриями крупных рек и oзёр, а также на вершинах хoлмoв на 2-5 м/с выше, чем в oбычных услoвиях.
Атмoсфернoе давление в разных тoчках местнoсти мoжет значительнo oтличаться oт давления на метеoстанции, в зависимoсти oт услoвий рельефа (при пoдъёме на 10 м давление пoнижается примернo на 1 мм рт.ст.).